[[{"header":{"parameterUnit":"m.s-1","parameterCategory":1,"la1":30.2991,"la2":30.254,"lo1":-89.0895,"lo2":-89.0444,"dy":0.0017,"dx":0.0017,"nx":28,"ny":28,"refTime":"2025-07-11T03:00:00:Z","depth":0,"parameterNumber":2,"parameterNumberName":"U-component_of_WINDS"},"data":[0,0,0,0,0,0,0,0,0,0,0,0,0,0,0,0,0,0,0,0,0,0,0,0,0,0,0,0,0,0,0,0,0,0,0,0,0,0,0,0,0,0,0,0,0,0,0,0,0,0,0,0,0,0,0,0,0,0,2.91,2.9101,0,2.9147,2.9148,2.9148,2.9138,2.9137,2.9136,2.9135,2.9185,2.9187,2.9189,0,0,0,0,0,0,0,0,0,0,0,0,0,2.9003,2.9005,2.91,2.9101,2.9101,2.9147,2.9148,2.9149,2.9138,2.9137,2.9136,2.9135,2.9184,2.9186,2.9189,0,0,0,0,0,0,0,0,0,0,0,0,0,2.9047,2.9006,2.91,2.9101,2.9102,2.9147,2.9148,2.9149,2.9138,2.9137,2.9135,2.9134,2.9183,2.9186,2.9189,2.9236,0,0,2.9199,2.9201,0,0,0,0,0,0,0,0,2.9045,2.9051,2.9101,2.9101,2.9102,2.9135,2.9132,2.9178,2.9138,2.9124,2.9135,2.9133,2.9169,2.9174,2.9185,2.9239,2.9241,2.92,2.9202,2.9203,2.9204,0,0,0,0,0,0,0,2.9042,2.9049,2.9119,2.9101,2.9102,2.91,2.9105,2.9141,2.9154,2.9126,2.9125,2.913,2.917,2.9182,2.9187,2.9242,2.9199,2.9202,2.9204,2.9206,2.9338,2.9339,0,0,0,0,0,0,2.9038,2.9046,2.9117,2.912,2.907,2.9103,2.9109,2.9126,2.9153,2.9156,2.9132,2.913,2.9177,2.9183,2.9188,2.9247,2.9203,2.9206,2.9208,2.9336,2.9338,2.934,0,0,0,0,0,0,2.9036,2.9044,2.9115,2.9083,2.9092,2.9106,2.9126,2.9128,2.914,2.9158,2.9161,2.9142,2.9177,2.9184,2.9225,2.9248,2.9207,2.921,2.9334,2.9337,2.9339,2.9362,0,0,0,0,0,0,2.9033,2.9044,2.9061,2.9084,2.9094,2.9151,2.9127,2.913,2.9146,2.9144,2.9169,2.9171,2.9176,2.922,2.9228,2.9252,2.9213,2.9332,2.9335,2.9338,2.936,2.9365,2.937,0,0,0,0,0,2.903,2.9066,2.9062,2.9071,2.9116,2.9152,2.9158,2.9162,2.9148,2.9166,2.9177,2.9171,2.9244,2.9224,2.9233,2.9258,2.9331,2.9334,2.9338,2.9357,2.9364,2.937,0,0,0,0,0,0,2.9046,2.9069,2.9065,2.9109,2.9129,2.915,2.9173,2.9169,2.9193,2.9191,2.9195,2.9201,2.9243,2.9255,2.9232,2.9306,2.9285,2.9291,2.9297,2.9304,2.9309,2.9306,2.9216,0,0,0,0,0,2.9054,2.9081,2.91,2.9137,2.9147,2.9159,2.9174,2.9176,2.9197,2.9205,2.9219,2.924,2.9268,2.9286,2.9313,2.9361,2.9367,2.9383,2.9388,2.9392,2.9397,2.9425,2.9433,2.9351,2.9351,2.9351,0,0,2.9073,2.9088,2.9105,2.9141,2.9156,2.9185,2.9166,2.9196,2.9218,2.921,2.925,2.9261,2.9285,2.933,2.9351,2.9341,2.9421,2.9397,2.94,2.9403,2.943,2.9437,2.9444,2.9354,2.9353,2.9353,0,0,2.9121,2.9135,2.9168,2.9184,2.9208,2.9215,2.9223,2.9245,2.9253,2.9293,2.9288,2.9314,2.9361,2.9379,2.9394,2.945,2.9445,2.9458,2.9486,2.9513,2.952,2.9526,2.9547,2.9555,2.9463,2.9463,2.9463,0,2.9141,2.9183,2.9186,2.9218,2.9235,2.9228,2.9263,2.9278,2.9309,2.9321,2.931,2.937,2.9385,2.9435,2.9449,2.9461,2.9472,2.9456,2.9518,2.9524,2.953,2.955,2.9558,2.9465,2.9465,2.9464,2.9464,0,2.9208,2.9237,2.9261,2.9292,2.9311,2.9344,2.9353,2.9372,2.9372,2.9381,2.9423,2.9441,2.9472,2.9483,2.9484,2.9534,2.9528,2.9517,2.9497,2.9539,2.9559,2.9566,2.9467,2.9466,2.9466,2.9466,0,0,2.9268,2.93,2.9309,2.9323,2.9349,2.9372,2.9405,2.9435,2.9452,2.9474,2.9503,2.9544,2.9534,2.9552,2.9554,2.9578,2.9623,2.9565,2.9565,2.9576,2.9681,2.969,2.9699,2.9619,2.9621,2.9622,2.968,0,2.932,2.9378,2.9382,2.9435,2.9463,2.9458,2.9487,2.9506,2.9516,2.9542,2.9552,2.9581,2.9566,2.9577,2.96,2.9612,2.9644,2.9608,2.9648,2.9649,2.9643,2.9709,2.9718,2.9772,2.9687,2.9689,2.969,0,2.9388,2.9412,2.9468,2.9491,2.9503,2.9529,2.9557,2.9582,2.9604,2.9609,2.9629,2.9628,2.9664,2.9641,2.9691,2.9666,2.9682,2.9691,2.9693,2.9698,2.9673,2.9717,2.9789,2.9797,2.9701,2.97,2.97,0,2.9429,2.9475,2.9514,2.9527,2.9554,2.9573,2.9585,2.9606,2.9624,2.9649,2.9661,2.969,2.9706,2.9729,2.9736,2.9719,2.9786,2.9764,2.9793,2.9793,2.9808,2.9807,2.9885,2.9816,2.9816,2.9816,2.9816,0,2.9487,2.9522,2.9533,2.9558,2.9597,2.9601,2.964,2.9652,2.9671,2.9698,2.9695,2.9721,2.9728,2.9756,2.9762,2.9803,2.981,2.9816,2.9818,2.9818,2.9817,2.9829,2.9826,2.9818,2.9818,2.9817,2.9817,0,2.9539,2.9548,2.9591,2.9614,2.962,2.9648,2.9668,2.9692,2.9701,2.9736,2.9744,2.9758,2.9791,2.98,2.9839,2.9843,2.9892,2.9889,2.9885,2.9885,2.9914,2.9912,3.0003,3.0016,2.9938,2.9939,2.9939,0,2.9577,2.9603,2.9629,2.9647,2.966,2.9689,2.9707,2.9713,2.9732,2.9761,2.9782,2.9814,2.984,2.9892,2.9907,2.9937,2.9936,2.9966,2.994,2.994,2.9938,2.9937,2.9941,2.9971,2.9972,2.9973,2.9973,0,2.9643,2.9646,2.9672,2.9701,2.9723,2.9746,2.9768,2.9783,2.9792,2.9814,2.9847,2.9867,2.9908,2.994,2.9971,2.9984,2.9981,2.9981,2.9989,2.999,2.9987,2.9991,2.9899,2.9979,2.9978,2.9978,2.9978,2.9977,2.969,2.9714,2.9736,2.9766,2.9783,2.9804,2.9828,2.984,2.9867,2.99,2.9902,2.9938,2.9961,3.0002,3.0017,3.0046,3.0038,3.005,3.0053,3.0056,3.0059,2.9981,3.0052,3.0052,3.0051,3.0051,3.0051,0,2.9757,2.9771,2.9799,2.9829,2.9853,2.9847,2.9871,2.9892,2.9924,2.9945,2.9971,3.001,3.0041,3.0058,3.009,3.011,3.0109,3.0118,3.0118,3.0121,3.0065,3.0055,3.0118,3.0118,3.0118,3.0118,3.0118,3.0118,2.9795,2.9836,2.9842,2.9892,2.9905,2.9941,2.9955,2.9975,2.9992,3.0035,3.0061,3.0072,3.0092,3.0125,3.0154,3.0158,3.0171,3.0181,3.0185,3.0132,3.0125,3.0118,3.0109,3.0183,3.0184,3.0239,3.024,3.024]},{"header":{"parameterUnit":"m.s-1","parameterCategory":1,"la1":30.2991,"la2":30.254,"lo1":-89.0895,"lo2":-89.0444,"dy":0.0017,"dx":0.0017,"nx":28,"ny":28,"refTime":"2025-07-11T03:00:00:Z","depth":0,"parameterNumber":3,"parameterNumberName":"V-component_of_WINDS"},"data":[0,0,0,0,0,0,0,0,0,0,0,0,0,0,0,0,0,0,0,0,0,0,0,0,0,0,0,0,0,0,0,0,0,0,0,0,0,0,0,0,0,0,0,0,0,0,0,0,0,0,0,0,0,0,0,0,0,0,-0.0648,-0.0649,0,-0.0759,-0.076,-0.0762,-0.0817,-0.0817,-0.0817,-0.0818,-0.0933,-0.0936,-0.0939,0,0,0,0,0,0,0,0,0,0,0,0,0,-0.0487,-0.0489,-0.0648,-0.0649,-0.0651,-0.0759,-0.076,-0.0762,-0.0817,-0.0817,-0.0817,-0.0818,-0.0932,-0.0936,-0.0939,0,0,0,0,0,0,0,0,0,0,0,0,0,-0.0573,-0.049,-0.0648,-0.0691,-0.0696,-0.0759,-0.076,-0.0762,-0.0817,-0.0817,-0.0817,-0.0818,-0.0931,-0.0935,-0.094,-0.0968,0,0,-0.0954,-0.0956,0,0,0,0,0,0,0,0,-0.0568,-0.0579,-0.0684,-0.0688,-0.0694,-0.0774,-0.0746,-0.0831,-0.0817,-0.0772,-0.0818,-0.0818,-0.088,-0.0889,-0.091,-0.0973,-0.0978,-0.0954,-0.0957,-0.0959,-0.096,0,0,0,0,0,0,0,-0.0562,-0.0575,-0.0692,-0.0685,-0.0692,-0.0706,-0.0719,-0.0762,-0.0824,-0.0776,-0.078,-0.0792,-0.0883,-0.0905,-0.0913,-0.098,-0.0954,-0.0958,-0.0961,-0.0963,-0.1074,-0.1074,0,0,0,0,0,0,-0.0549,-0.0569,-0.0688,-0.0695,-0.063,-0.0709,-0.0723,-0.0749,-0.0824,-0.0836,-0.0792,-0.0794,-0.0898,-0.0908,-0.0917,-0.0957,-0.0959,-0.0963,-0.0966,-0.1074,-0.1074,-0.1074,0,0,0,0,0,0,-0.0545,-0.0559,-0.0684,-0.0634,-0.0651,-0.0712,-0.074,-0.0751,-0.0773,-0.0837,-0.0848,-0.0803,-0.0898,-0.0911,-0.0955,-0.0961,-0.0965,-0.097,-0.1073,-0.1074,-0.1074,-0.1034,0,0,0,0,0,0,-0.054,-0.0557,-0.0567,-0.0633,-0.0653,-0.0719,-0.0741,-0.0753,-0.0781,-0.0785,-0.085,-0.0861,-0.0899,-0.0948,-0.096,-0.0968,-0.0973,-0.1073,-0.1074,-0.1074,-0.1035,-0.1033,-0.1031,0,0,0,0,0,-0.0534,-0.0552,-0.0568,-0.0582,-0.0667,-0.0719,-0.073,-0.0773,-0.0781,-0.0792,-0.0834,-0.0859,-0.0959,-0.0952,-0.0966,-0.0975,-0.1073,-0.1073,-0.1074,-0.1036,-0.1033,-0.1031,0,0,0,0,0,0,-0.0485,-0.0561,-0.058,-0.0618,-0.0662,-0.0728,-0.0744,-0.0769,-0.0811,-0.0813,-0.0866,-0.088,-0.092,-0.0952,-0.0943,-0.1007,-0.1018,-0.1022,-0.0985,-0.0983,-0.0981,-0.0973,-0.0977,0,0,0,0,0,-0.0478,-0.0513,-0.0578,-0.0606,-0.0627,-0.0682,-0.0706,-0.0735,-0.0783,-0.0801,-0.0846,-0.0891,-0.0933,-0.096,-0.1002,-0.104,-0.1056,-0.1053,-0.1051,-0.1049,-0.1052,-0.1076,-0.1076,-0.1076,-0.1076,-0.1076,0,0,-0.0466,-0.0512,-0.053,-0.0598,-0.0635,-0.0671,-0.0697,-0.0734,-0.0762,-0.0807,-0.0852,-0.0886,-0.0941,-0.0982,-0.1003,-0.101,-0.1055,-0.105,-0.1048,-0.1051,-0.1077,-0.1077,-0.1077,-0.1076,-0.1076,-0.1076,0,0,-0.0461,-0.0499,-0.0527,-0.0564,-0.062,-0.0656,-0.0663,-0.0726,-0.0751,-0.0796,-0.0832,-0.0867,-0.0937,-0.0975,-0.1004,-0.1015,-0.1041,-0.1028,-0.1017,-0.1041,-0.1041,-0.1041,-0.1047,-0.1048,-0.103,-0.103,-0.103,0,-0.0438,-0.0494,-0.0539,-0.0574,-0.0604,-0.0647,-0.0677,-0.0711,-0.0777,-0.0797,-0.0804,-0.0895,-0.0935,-0.0987,-0.099,-0.1011,-0.1022,-0.1021,-0.1037,-0.1038,-0.1039,-0.1045,-0.1047,-0.1028,-0.1028,-0.1028,-0.1028,0,-0.0464,-0.0502,-0.0518,-0.0582,-0.0613,-0.0646,-0.0697,-0.0723,-0.0751,-0.0787,-0.0834,-0.0883,-0.0937,-0.0951,-0.0978,-0.1008,-0.1011,-0.1027,-0.1039,-0.1036,-0.1043,-0.1046,-0.1025,-0.1026,-0.1026,-0.1027,0,0,-0.0431,-0.052,-0.0525,-0.0555,-0.0621,-0.0652,-0.0687,-0.0739,-0.0762,-0.0807,-0.0839,-0.0898,-0.0914,-0.0947,-0.0978,-0.0999,-0.1007,-0.1013,-0.1015,-0.1011,-0.1046,-0.1034,-0.1036,-0.1024,-0.1025,-0.1025,-0.1041,0,-0.0436,-0.0501,-0.0544,-0.0592,-0.0629,-0.0671,-0.0702,-0.0747,-0.0782,-0.0819,-0.0858,-0.09,-0.0917,-0.0937,-0.0959,-0.1001,-0.1015,-0.1001,-0.1056,-0.1058,-0.1042,-0.1039,-0.1026,-0.1039,-0.1044,-0.1045,-0.1045,0,-0.0451,-0.0496,-0.0547,-0.0611,-0.0628,-0.0655,-0.0707,-0.0742,-0.0794,-0.0818,-0.0855,-0.0887,-0.0928,-0.0937,-0.0995,-0.0984,-0.101,-0.1034,-0.1036,-0.1043,-0.1051,-0.1048,-0.1044,-0.1046,-0.1049,-0.1049,-0.1049,0,-0.0424,-0.0496,-0.0537,-0.0562,-0.0636,-0.0654,-0.0687,-0.0738,-0.0768,-0.0814,-0.0834,-0.0884,-0.0912,-0.095,-0.0996,-0.0998,-0.105,-0.1062,-0.1073,-0.1072,-0.1082,-0.1081,-0.1084,-0.1097,-0.1097,-0.1097,-0.1097,0,-0.0426,-0.0457,-0.0526,-0.0551,-0.0587,-0.0637,-0.0671,-0.0707,-0.0753,-0.0787,-0.0827,-0.0858,-0.0917,-0.0956,-0.0992,-0.1035,-0.1047,-0.1069,-0.1079,-0.1066,-0.1064,-0.1084,-0.1085,-0.1097,-0.1097,-0.1097,-0.1097,0,-0.0402,-0.0449,-0.0497,-0.0564,-0.0581,-0.0605,-0.0663,-0.069,-0.0728,-0.0771,-0.0784,-0.0843,-0.0891,-0.094,-0.1005,-0.103,-0.1073,-0.1085,-0.1055,-0.1061,-0.1069,-0.1068,-0.1086,-0.1091,-0.1099,-0.1099,-0.1099,0,-0.0401,-0.0425,-0.0495,-0.052,-0.0552,-0.0592,-0.0622,-0.0672,-0.0703,-0.0765,-0.0784,-0.0835,-0.0879,-0.0954,-0.1004,-0.1054,-0.1069,-0.1072,-0.1077,-0.1064,-0.1071,-0.1069,-0.1073,-0.107,-0.107,-0.1069,-0.1069,0,-0.0394,-0.0417,-0.0458,-0.0509,-0.0544,-0.0586,-0.063,-0.0649,-0.0708,-0.074,-0.079,-0.0823,-0.089,-0.0941,-0.0998,-0.1033,-0.1061,-0.1067,-0.1073,-0.1061,-0.1043,-0.1054,-0.1051,-0.1067,-0.1067,-0.1067,-0.1067,-0.1067,-0.0382,-0.0407,-0.046,-0.0506,-0.0544,-0.0585,-0.0614,-0.0655,-0.0697,-0.0755,-0.0783,-0.0833,-0.0887,-0.0966,-0.1,-0.1041,-0.1049,-0.1056,-0.1058,-0.1059,-0.1057,-0.1035,-0.1051,-0.1051,-0.1051,-0.1051,-0.1052,0,-0.0379,-0.0416,-0.0457,-0.0518,-0.0554,-0.0577,-0.0628,-0.0657,-0.07,-0.0748,-0.079,-0.0848,-0.0898,-0.0952,-0.1005,-0.1028,-0.1043,-0.104,-0.104,-0.1048,-0.1046,-0.1037,-0.1028,-0.1028,-0.1028,-0.1028,-0.1028,-0.1028,-0.0382,-0.0425,-0.0454,-0.0517,-0.0555,-0.0603,-0.063,-0.0669,-0.0707,-0.077,-0.0811,-0.0846,-0.0897,-0.0954,-0.1002,-0.1017,-0.1035,-0.1029,-0.1048,-0.1046,-0.1047,-0.1049,-0.1041,-0.1033,-0.1033,-0.1046,-0.1046,-0.1046]}]]